Weather History for KAUW - November, 2012

Change the Weather History Date:

Thursday, November 15, 2012

  Actual Average Record
Temperature  
Mean Temperature 41 °F 33 °F  
Max Temperature 50 °F 40 °F 66 °F (2001)
Min Temperature 32 °F 25 °F -3 °F (1916)
Degree Days  
Heating Degree Days 24 32  
Month to date heating degree days 435 431  
Since 1 July heating degree days 1294 1315  
Cooling Degree Days 0 0  
Month to date cooling degree days 0 0  
Year to date cooling degree days 725 407  
Moisture  
Dew Point 29 °F    
Average Humidity 61    
Maximum Humidity 76    
Minimum Humidity 46    
Precipitation  
Precipitation 0.00 in 0.07 in 1.07 in (1988)
Month to date precipitation 1.16 1.06  
Year to date precipitation 27.74 30.11  
Snow  
Snow 0.00 in 0.30 in 3.50 in (1956)
Month to date snowfall 0.6 2.2  
Since 1 July snowfall 0.6 3.6  
Snow Depth 0.00 in    
Sea Level Pressure  
Sea Level Pressure 30.27 in    
Wind  
Wind Speed 6 mph (SW)    
Max Wind Speed 15 mph    
Max Gust Speed 21 mph    
Visibility 10 miles    
Events      
T = Trace of Precipitation, MM = Missing Value Source: NWS Daily Summary

Daily Weather History Graph

Daily Weather History Graph

Search for Another Location

Airport or City:

Trip Planner

Search our weather history database for the weather conditions in past years. The results will help you decide how hot, cold, wet, or windy it might be!

Date:

Astronomy

Nov. 15, 2012 Rise Set
Actual Time 6:56 AM CST 4:29 PM CST
Civil Twilight 6:24 AM CST 5:01 PM CST
Nautical Twilight 5:49 AM CST 5:36 PM CST
Astronomical Twilight 5:14 AM CST 6:11 PM CST
Moon 8:55 AM CST (11/15) 6:17 PM CST (11/15)
Length of Visible Light 10h 36m
Length of Day
9h 32m
Waxing Crescent, 5% of the Moon is Illuminated
Nov 15
Waxing Crescent
Nov 20
First Quarter
Nov 28
Full
Dec 6
Last Quarter
Dec 13
New

Hourly Weather History & Observations

Time (CST) Temp. Windchill Dew Point Humidity Pressure Visibility Wind Dir Wind Speed Gust Speed Precip Events Conditions
12:54 AM 39.0 °F 31.8 °F 30.0 °F 70% 30.25 in 10.0 mi South 11.5 mph - N/A   Clear
1:54 AM 37.9 °F 30.5 °F 30.0 °F 73% 30.25 in 10.0 mi South 11.5 mph - N/A   Mostly Cloudy
2:54 AM 37.9 °F 30.0 °F 28.9 °F 70% 30.24 in 10.0 mi South 12.7 mph - N/A   Mostly Cloudy
3:54 AM 37.9 °F 30.5 °F 28.9 °F 70% 30.23 in 10.0 mi South 11.5 mph - N/A   Overcast
4:54 AM 37.9 °F 31.5 °F 28.9 °F 70% 30.23 in 10.0 mi South 9.2 mph - N/A   Mostly Cloudy
5:54 AM 37.0 °F 34.5 °F 28.9 °F 73% 30.23 in 10.0 mi SSE 3.5 mph - N/A   Scattered Clouds
6:54 AM 37.0 °F 31.0 °F 28.9 °F 73% 30.23 in 10.0 mi SSE 8.1 mph - N/A   Mostly Cloudy
7:54 AM 37.0 °F 31.6 °F 28.9 °F 73% 30.25 in 10.0 mi South 6.9 mph - N/A   Overcast
8:54 AM 39.0 °F 34.8 °F 30.0 °F 70% 30.25 in 10.0 mi South 5.8 mph - N/A   Mostly Cloudy
9:54 AM 42.1 °F - 30.0 °F 62% 30.26 in 10.0 mi Calm Calm - N/A   Overcast
10:54 AM 46.0 °F 42.5 °F 30.0 °F 54% 30.25 in 10.0 mi South 6.9 mph - N/A   Overcast
11:54 AM 46.9 °F - 30.0 °F 52% 30.23 in 10.0 mi Calm Calm - N/A   Mostly Cloudy
12:54 PM 48.0 °F - 30.0 °F 50% 30.23 in 10.0 mi WSW 4.6 mph - N/A   Mostly Cloudy
1:54 PM 50.0 °F - 30.0 °F 46% 30.22 in 10.0 mi SW 8.1 mph - N/A   Mostly Cloudy
2:54 PM 50.0 °F - 30.9 °F 48% 30.23 in 10.0 mi West 6.9 mph - N/A   Overcast
3:54 PM 48.0 °F - 30.9 °F 52% 30.25 in 10.0 mi WNW 4.6 mph - N/A   Clear
4:54 PM 46.0 °F 43.1 °F 32.0 °F 58% 30.27 in 10.0 mi West 5.8 mph - N/A   Clear
5:54 PM 43.0 °F 41.3 °F 30.9 °F 62% 30.29 in 10.0 mi WNW 3.5 mph - N/A   Clear
6:54 PM 37.9 °F - 30.9 °F 76% 30.31 in 10.0 mi Calm Calm - N/A   Clear
7:54 PM 39.0 °F 35.7 °F 30.9 °F 73% 30.32 in 10.0 mi NW 4.6 mph - N/A   Clear
8:54 PM 39.0 °F 34.0 °F 28.9 °F 67% 30.35 in 10.0 mi North 6.9 mph - N/A   Clear
9:54 PM 37.0 °F 32.4 °F 26.1 °F 65% 30.38 in 10.0 mi NNW 5.8 mph - N/A   Clear
10:54 PM 35.1 °F 30.1 °F 23.0 °F 61% 30.38 in 10.0 mi NNW 5.8 mph - N/A   Clear
11:54 PM 32.0 °F - 21.9 °F 66% 30.41 in 10.0 mi Calm Calm - N/A   Clear